Погода в Невинномысске

Погода в Невинномысске : погода сейчас, прогноз погоды и архив. Всё, что Вы хотите узнать о погоде в Невинномысске!

Поиск расширенной информации на нашем сайте:

Другие новости

Новости СМИ2

Главная страница сайта

Новости сайта

03.07.2017

Напоминаем, что на нашем специализированном сайте Метеоцентр.Азия вы можете получить высокодетализированные автоматические прогнозы погоды по пунктам России, СНГ и мира в авиационном формате (включающие направление и скорость ветра, видимость, явления погоды, количество и форму облачности, нижнюю и верхнюю границу облачности).


Погода в Невинномысске - сегодня

Время (UTC), дата Ветер
(°,м/с) 
Видим.   Явления Облачность Т
(°С)
Тd
(°С)
f(%) Тe
(°С)
Pmin
(гПа)
dP
(гПа)
Po
(мм)
O2
(г/м3)
Тmin Tmax R s Состояние
почвы
12 20.10.17 290 (З) 20000 м    10/0 верхняя 
[Ci fib]
+20.8 +5.9 38 +21  1017.1  -1  733  274           
15 20.10.17 тихо ()   20000 м    10/0 верхняя 
[Ci fib]
+13.8 +8 68 +14  1018.5  0.5  734  280    +20.8       
18 20.10.17 тихо ()   20000 м    10/0 верхняя 
[Ci fib]
+8.1 +5.5 84 +8  1020.2  0.7  734  286           
21 20.10.17 тихо ()   20000 м    ясно 
+5.6 +4.3 91 +6  1019.8  -0.7  734  289           
00 21.10.17 тихо ()   20000 м    ясно 
+4 +2.9 93 +4  1019.2  -0.8  733  291           
03 21.10.17 тихо ()   20000 м    ясно 
+3.1 +2 92 +3  1019.2  0.1  733  292  +3.1         
06 21.10.17 190 (Ю) 20000 м    ясно 
+8.6 +5.3 80 +10  1018.4  0.1  733  285  +2.8         
09 21.10.17 310 (СЗ) 20000 м    10/0 верхняя 
[Ci fib]
+16.8 +7.5 54 +18  1016.1  -1  732  277           
12 21.10.17 310 (СЗ) 20000 м    10/0 верхняя 
[Ci fib]
+17.7 +6.6 48 +19  1014.7  -1.3  731  276           
15 21.10.17 310 (СЗ) 20000 м    10/0 средняя, верхняя 
[Ac trans|Ci sp]
+14.5 +7.7 64 +15  1015.1  731  278    +18.2       
18 21.10.17 170 (Ю) 20000 м    10/0 средняя, верхняя 
[Ac trans|Ci sp]
+8.1 +6.5 90 +9  1016.1  731  285           
21 21.10.17 тихо ()   20000 м    10/0 средняя 
[Ac As]
+6.2 +4.9 91 +6  1015.6  -0.7  731  287           
00 22.10.17 тихо ()   20000 м    10/0 средняя 
[Ac und]
+7.8 +6.2 90 +8  1014.3  -1  730  285           
03 22.10.17 180 (Ю) 20000 м    10/0 средняя 
[Ac und]
+7.9 +6 88 +9  1013.2  -1.1  729  285  +6         
06 22.10.17 200 (Ю) 20000 м    10/0 средняя, верхняя 
[Ac cast|Ci]
+10 +6.3 78 +11  1012.9  729  282           
09 22.10.17 280 (З) 20000 м    10/0 средняя 
[Ac As]
+14.9 +7 59 +16  1011.2  -1  728  277           
12 22.10.17 310 (СЗ) 20000 м    10/0 средняя 
[Ac As]
+15.4 +7.3 58 +17  1010  -1.1  728  276           
15 22.10.17 тихо ()   10 км  слаб. дождь  10/10 600 м 
[Ns]
+13.1 +9.1 77 +14  1010.6  0.3  728  278    +15.7       
18 22.10.17 250 (З) 10 км  слаб. дождь  10/10 600 м 
[Frnb|Ns]
+10.9 +9.1 89 +13  1012  729  281           
21 22.10.17 230 (ЮЗ) 10 км  слаб. дождь  10/10 600 м 
[Frnb]
+10.6 +8.3 86 +10  1013.2  1.1  729  281           
00 23.10.17 290 (З) 20000 м  {дождь}  10/10 600 м 
[Frnb|Ns]
+9.2 +8 92 +10  1015.4  1.9  731  283           
03 23.10.17 070 (В) 20000 м    10/10 600 м 
[Frnb|Ns]
+6.8 +5.6 92 +7  1017.9  732  287  +6.8       
06 23.10.17 060 (СВ) 20000 м    10/10 600 м 
[Frnb]
+5.7 +4.6 93 +5  1020.1  1.9  734  289  +5.6         
09 23.10.17 060 (СВ) 10 км  дымка  10/0 средняя 
[As trans]
+6.6 +5 90 +6  1020.1  0.2  734  288           
12 23.10.17 080 (В) 20000 м    10/10 600 м 
[Sc]
+7.6 +5.1 84 +6  1019.7  -0.3  734  287           
Время (UTC), дата Ветер
(°,м/с) 
Видим.   Явления Облачность Т
(°С)
Тd
(°С)
f(%) Тe
(°С)
Pmin
(гПа)
dP
(гПа)
Po
(мм)
O2
(г/м3)
Тmin Tmax R s Состояние
почвы

Для получения пояснительной информации подведите курсор к названию столбца.

ПОГОДА в Невинномысске - архив

Всё, что Вы хотите узнать о погоде в Невинномысске - удобно и подробно!

Выберите нужную дату (начиная с 1 января 2015* года) и нажмите кнопку "Найти".
Будут отображены архивные сводки погоды по пункту Невинномысск, начиная с указанной даты.


Отображать данные в формате CSV (для использования в таблицах Excel)


Внимание! Наш архив погоды предназначен исключительно для личного некоммерческого использования в познавательных целях. Если Вам необходимы официальные справки о состоянии погоды (для производственных, юридических, коммерческих и т.п. целей), обращайтесь в органы Росгидромета.

*Примечание: данная дата относится к архиву по метеостанциям СССР (Россия, СНГ, Балтия).
Архив по метеостанциям Зарубежной Европы и Азии (кроме Китая) хранится 10 дней, по другим регионам земного шара (Китай, Африка, Америка, Австралия, Океания) - 1 день.

Невинномысск - район местоположения метеостанции


Название, широта, долгота, высота метеостанции:
Невинномысск 44.6°ш. 42°д. 343 м над ур. моря [Российская Федерация]

Дополнительная информация

В oтличие oт бoльшинства пoгoдных сайтoв мы публикуем пoдрoбную метеoинфoрмацию в детальнoм прoфессиoнальнoм фoрмате.

Характеристики температуры и влажнoсти вoздуха измеряются на высoте 2 м в тени вдали oт зданий и деревьев.
Скoрoсть ветра измеряется на высoте 10 м (на урoвне рoста челoвека скoрoсть ветра ниже в 1.5-2 раза). Если метеoстанция нахoдится в гoрoде или в лесу, тo скoрoсть ветра занижена на 2-4 м/с пo сравнению с oткрытым местoм. Скoрoсть ветра над акватoриями крупных рек и oзёр, а также на вершинах хoлмoв на 2-5 м/с выше, чем в oбычных услoвиях.
Атмoсфернoе давление в разных тoчках местнoсти мoжет значительнo oтличаться oт давления на метеoстанции, в зависимoсти oт услoвий рельефа (при пoдъёме на 10 м давление пoнижается примернo на 1 мм рт.ст.).